Content
SEND FEEDBACK

Daily
Averages
Monthly
Summary
Australia

YIRRKALA MISSION, NORTHERN TERRITORY


Home > Oceania > Australia > Northern Territory
Elevation: 29 feet     Latitude: 12 15S     Longitude: 136 52E

WEATHER
 
SELECT A DAY
Number of Records: 221,979;   Date Range: 10/22/03 - 7/27/14
 
SHARE

PRINT THIS DATA

[ ← Previous Day ]
WEATHER ALMANAC - FEBRUARY 13, 2013
[ Next Day → ]
[ °C ]   °F
Weather ElementAverageHighLow
Temperature82.9 °F91.4 °F (2:00 pm)75 °F (6:30 am)
Dewpoint73.6 °F75.2 °F (7:30 am)69.8 °F (2:30 pm)
Humidity73.6 %94 % (1:30 am)42 % (3:00 pm)
Barometer29.75 in29.81 in (9:30 am)29.68 in (4:00 pm)
Wind Speed5.5 mph17.3 mph (3:30 pm)
Weather ElementAverage
Visibility6.8 mi
Wind DirectionNE (50.4 °)

Weather ElementTotal
Precipitation---
Cooling Degree Days18.2 (Base 65)
Growing Degree Days33.2 (Base 50)
Averaged from 63 records on February 13, 2013
WEATHER CONDITIONS BREAKOUT
WIND DIRECTION BREAKOUT
WEATHER BY HOUR - FEBRUARY 13, 2013
[ °C ]   °F
Local TimeTemperatureDewpointHumidityBarometerVisibilityWind DirectionWind SpeedGust SpeedPrecipitationEventsConditions
12:00 AM78.8 °F73.4 °F83 %29.77 in6.2 miCalmScattered Clouds
12:30 AM77.0 °F74.0 °F86 %29.76 inCalm
12:30 AM77.0 °F73.4 °F89 %29.77 in6.2 miCalmScattered Clouds
1:00 AM77.0 °F73.4 °F89 %29.77 in6.2 miCalm
1:30 AM75.2 °F73.4 °F94 %29.77 in6.2 miCalm
2:00 AM77.0 °F73.4 °F89 %29.74 in6.2 miCalm
2:30 AM77.0 °F73.4 °F89 %29.74 in6.2 miCalm
3:00 AM77.0 °F73.4 °F89 %29.74 in6.2 miCalm
3:00 AM76.0 °F73.0 °F89 %29.74 inCalm
3:30 AM76.0 °F73.0 °F87 %29.73 inCalm
3:30 AM75.2 °F73.4 °F94 %29.74 in6.2 miCalm
4:00 AM75.2 °F73.4 °F94 %29.74 in6.2 miCalm
4:30 AM75.2 °F73.4 °F94 %29.74 in6.2 miCalm
5:00 AM75.2 °F73.4 °F94 %29.74 in6.2 miCalm
5:30 AM75.2 °F73.4 °F94 %29.74 in6.2 miCalm
6:00 AM75.2 °F73.4 °F94 %29.74 in6.2 miCalmPartly Cloudy
6:00 AM76.0 °F73.0 °F87 %29.74 in19.0 miCalmPartly Cloudy
6:30 AM75.0 °F73.0 °F90 %29.75 inCalm
6:30 AM75.2 °F73.4 °F94 %29.74 in6.2 miCalmMostly Cloudy
7:00 AM77.0 °F73.4 °F89 %29.77 in6.2 miCalmScattered Clouds
7:30 AM80.6 °F75.2 °F84 %29.77 in6.2 miCalmMostly Cloudy
8:00 AM84.2 °F73.4 °F70 %29.77 in6.2 miEast (100°)2.3 mphMostly Cloudy
8:30 AM84.2 °F75.2 °F74 %29.80 in6.2 miSE (130°)5.8 mphPartly Cloudy
9:00 AM86.0 °F73.4 °F66 %29.80 in6.2 miEast (90°)6.9 mphScattered Clouds
9:00 AM86.0 °F74.0 °F60 %29.80 in17.0 miEast (100°)6.9 mphPartly Cloudy
9:30 AM87.0 °F73.0 °F56 %29.81 inENE (70°)8.1 mph
9:30 AM87.8 °F73.4 °F62 %29.80 in6.2 miENE (70°)8.1 mphMostly Cloudy
10:00 AM87.8 °F73.4 °F62 %29.80 in6.2 miNE (50°)9.2 mphPartly Cloudy
10:30 AM87.8 °F73.4 °F62 %29.80 in5.0 miEast (90°)5.8 mphRainRain Showers
11:00 AM89.6 °F73.4 °F59 %29.80 in6.2 miEast (80°)9.2 mphMostly Cloudy
11:30 AM89.6 °F71.6 °F55 %29.77 in6.2 miENE (70°)10.4 mphPartly Cloudy
12:00 PM87.8 °F75.2 °F66 %29.77 in6.2 miEast (100°)11.5 mphMostly Cloudy
12:00 PM87.0 °F75.0 °F60 %29.77 in16.0 miEast (100°)11.5 mphPartly Cloudy
12:30 PM90.0 °F72.0 °F47 %29.75 inEast (90°)9.2 mph
12:30 PM89.6 °F71.6 °F55 %29.77 in6.2 miEast (90°)9.2 mphPartly Cloudy
1:00 PM89.6 °F73.4 °F59 %29.74 in6.2 miNE (50°)11.5 mphMostly Cloudy
1:30 PM89.6 °F71.6 °F55 %29.74 in6.2 miEast (100°)13.8 mphMostly Cloudy
2:00 PM91.4 °F71.6 °F52 %29.74 in6.2 miENE (70°)13.8 mphMostly Cloudy
2:30 PM89.6 °F69.8 °F52 %29.71 in6.2 miEast (80°)15.0 mph
3:00 PM91.4 °F71.6 °F52 %29.71 in6.2 miEast (80°)15.0 mph
3:00 PM91.0 °F71.0 °F42 %29.71 inEast (80°)15.0 mph
3:30 PM89.0 °F72.0 °F48 %29.70 inESE (110°)17.3 mph
3:30 PM89.6 °F71.6 °F55 %29.71 in6.2 miESE (110°)17.3 mphMostly Cloudy
4:00 PM87.8 °F71.6 °F58 %29.68 in6.2 miEast (80°)15.0 mphScattered Clouds
4:30 PM87.8 °F71.6 °F58 %29.68 in6.2 miENE (70°)11.5 mphMostly Cloudy
5:00 PM89.6 °F73.4 °F59 %29.68 in6.2 miENE (60°)11.5 mphScattered Clouds
5:30 PM87.8 °F73.4 °F62 %29.68 in6.2 miNE (40°)11.5 mphMostly Cloudy
6:00 PM86.0 °F75.2 °F70 %29.68 in6.2 miENE (70°)11.5 mphScattered Clouds
6:00 PM86.0 °F75.0 °F62 %29.70 inENE (70°)11.5 mph
6:30 PM85.0 °F74.0 °F64 %29.70 inENE (70°)9.2 mph
6:30 PM84.2 °F75.2 °F74 %29.71 in6.2 miENE (70°)9.2 mphScattered Clouds
7:00 PM84.2 °F75.2 °F74 %29.71 in6.2 miENE (60°)5.8 mph
7:30 PM84.2 °F75.2 °F74 %29.71 in6.2 miNE (40°)5.8 mph
8:00 PM84.2 °F75.2 °F74 %29.74 in6.2 miNE (40°)4.6 mph
8:30 PM84.2 °F75.2 °F74 %29.74 in6.2 miENE (70°)4.6 mph
9:00 PM82.4 °F75.2 °F79 %29.74 in6.2 miCalm
9:00 PM82.0 °F75.0 °F75 %29.75 inCalm
9:30 PM80.0 °F75.0 °F81 %29.74 inESE (110°)1.2 mph
9:30 PM80.6 °F75.2 °F84 %29.74 in6.2 miESE (110°)1.2 mph
10:00 PM78.8 °F75.2 °F89 %29.74 in6.2 miCalm
10:30 PM78.8 °F75.2 °F89 %29.77 in6.2 miCalm
11:00 PM78.8 °F75.2 °F89 %29.77 in6.2 miCalm
11:30 PM78.8 °F75.2 °F89 %29.77 in6.2 miCalm
Hourly data recorded from YPGV, located miles away from Yirrkala Mission, Northern Territory







STORIES FROM OUR PARTNERS